Hourly Data Report for July 11, 2021

WRIGLEY A
NORTHWEST TERRITORIES
Current Station Operator: NAVCAN

63°12'35.000" N
123°26'12.000" W
149.70 m
2204005
YWY

Download Data

Hourly Data (July 2021)
Hourly Data Report for July 11, 2021
TIME
LST
Temp Definition
°C
Dew Point Definition
°C
Rel Hum Definition
%
Precip. Amount Definition
mm

Wind Dir Definition
10's deg

Wind Spd Definition
km/h
Visibility Definition
km
Stn Press Definition
kPa
Hmdx Definition


Wind Chill Definition


Weather Definition


00:00 17.9 11.2 65 LegendMM 30 14 LegendMM 99.09     LegendNANA
01:00 17.2 11.2 67 LegendMM 31 9 LegendMM 99.10     LegendNANA
02:00 16.8 10.3 65 LegendMM 28 9 LegendMM 99.14     LegendNANA
03:00 16.9 9.1 60 LegendMM 32 5 LegendMM 99.24     LegendNANA
04:00 15.8 9.8 67 LegendMM 2 3 LegendMM 99.25     LegendNANA
05:00 14.9 10.0 72 LegendMM 7 5 LegendMM 99.29     LegendNANA
06:00 15.3 10.3 72 LegendMM 30 10 LegendMM 99.31     LegendNANA
07:00 14.9 9.8 72 LegendMM 31 3 LegendMM 99.30     LegendNANA
08:00 15.4 9.6 68 LegendMM 2 8 LegendMM 99.33     LegendNANA
09:00 15.9 10.6 71 LegendMM 30 14 LegendMM 99.35     LegendNANA
10:00 15.8 10.9 72 LegendMM 30 10 LegendMM 99.37     LegendNANA
11:00 17.1 11.1 68 LegendMM 31 4 LegendMM 99.38     LegendNANA
12:00 18.3 11.7 65 LegendMM 24 4 LegendMM 99.38     LegendNANA
13:00 19.3 9.3 52 LegendMM 26 6 LegendMM 99.38     LegendNANA
14:00 21.1 8.4 44 LegendMM 21 4 LegendMM 99.35     LegendNANA
15:00 20.8 8.4 44 LegendMM 22 5 LegendMM 99.34     LegendNANA
16:00 18.1 9.8 58 LegendMM 14 11 LegendMM 99.38     LegendNANA
17:00 13.4 11.8 90 LegendMM 4 11 LegendMM 99.54     LegendNANA
18:00 14.7 12.9 89 LegendMM 36 6 LegendMM 99.53     LegendNANA
19:00 17.1 11.4 69 LegendMM 17 7 LegendMM 99.53     LegendNANA
20:00 17.8 12.2 69 LegendMM 12 4 LegendMM 99.58     LegendNANA
21:00 17.4 11.6 68 LegendMM 11 5 LegendMM 99.58     LegendNANA
22:00 15.2 11.8 80 LegendMM 10 5 LegendMM 99.62     LegendNANA
23:00 12.4 11.4 94 LegendMM 2 3 LegendMM 99.69     LegendNANA

Notes on Data Quality.

Legend

  • E = Estimated
  • M = Missing
  • NA = Not Available*
  • [empty] = Indicates an unobserved value
Date modified: